Retour au catalogue

ORBCOMM FM 8

ActifCommunicationsLEO
NORAD 25112·PAYLOAD·🇺🇸 United States

Lancé Dec 23, 1997 depuis Cape Canaveral Space Force Station

Loading…

Prochains Passages (prochaines 24 heures)

TLE

FraisSource: Space-Track

Époque: Sep 14, 2026, 15:05 UTC

1 25112U 97084A   26257.62849318  .00000804  00000-0  25618-3 0  9999
2 25112  45.0152 343.1412 0003605  38.2423 321.8684 14.47437111507180

Suivez ORBCOMM FM 8 en temps réel avec AllMySat

Download on the App Store